TimeCDT,TemperatureF,Dew PointF,Humidity,Sea Level PressureIn,VisibilityMPH,Wind Direction,Wind SpeedMPH,Gust SpeedMPH,PrecipitationIn,Events,Conditions,WindDirDegrees,DateUTC
12:53 AM,37.9,33.1,83,29.84,8.0,SE,6.9,-,N/A,,Clear,140,2013-03-23 05:53:00
1:53 AM,37.9,33.1,83,29.82,7.0,ESE,3.5,-,N/A,,Clear,120,2013-03-23 06:53:00
2:42 AM,37.4,33.8,87,29.82,7.0,ENE,3.5,-,N/A,,Mostly Cloudy,70,2013-03-23 07:42:00
2:53 AM,39.0,34.0,82,29.81,7.0,East,3.5,-,N/A,,Mostly Cloudy,80,2013-03-23 07:53:00
3:53 AM,41.0,35.1,79,29.79,8.0,ESE,4.6,-,N/A,,Overcast,110,2013-03-23 08:53:00
4:01 AM,41.0,35.6,81,29.80,8.0,ESE,4.6,-,N/A,,Overcast,110,2013-03-23 09:01:00
4:53 AM,41.0,36.0,82,29.76,8.0,East,4.6,-,N/A,,Overcast,100,2013-03-23 09:53:00
5:53 AM,42.1,36.0,79,29.75,7.0,East,3.5,-,N/A,,Overcast,80,2013-03-23 10:53:00
6:53 AM,42.1,37.0,82,29.77,6.0,SE,8.1,-,0.00,,Haze,130,2013-03-23 11:53:00
7:53 AM,42.1,37.0,82,29.77,6.0,East,3.5,-,N/A,,Haze,80,2013-03-23 12:53:00
8:53 AM,43.0,37.0,80,29.80,5.0,East,6.9,-,N/A,,Haze,90,2013-03-23 13:53:00
9:50 AM,42.8,37.4,81,29.83,2.5,ENE,5.8,-,N/A,,Haze,60,2013-03-23 14:50:00
9:53 AM,43.0,39.0,86,29.83,3.0,ENE,6.9,-,N/A,,Overcast,60,2013-03-23 14:53:00
10:00 AM,42.8,37.4,81,29.83,2.5,ENE,8.1,-,N/A,,Haze,60,2013-03-23 15:00:00
10:15 AM,42.8,39.2,87,29.82,1.8,East,6.9,-,N/A,,Overcast,80,2013-03-23 15:15:00
10:38 AM,42.8,39.2,87,29.83,2.0,ENE,9.2,-,N/A,,Overcast,60,2013-03-23 15:38:00
10:53 AM,44.1,39.0,82,29.83,3.0,NE,8.1,-,N/A,,Haze,50,2013-03-23 15:53:00
11:53 AM,44.1,39.0,82,29.82,5.0,East,6.9,-,N/A,,Haze,80,2013-03-23 16:53:00
12:53 PM,44.1,39.0,82,29.81,5.0,East,5.8,-,N/A,,Haze,80,2013-03-23 17:53:00
1:53 PM,46.0,39.0,76,29.77,7.0,East,4.6,-,N/A,,Overcast,80,2013-03-23 18:53:00
2:05 PM,46.4,39.2,76,29.76,8.0,East,8.1,-,N/A,,Overcast,100,2013-03-23 19:05:00
2:53 PM,48.9,39.9,71,29.74,9.0,ENE,6.9,-,N/A,,Overcast,70,2013-03-23 19:53:00
3:53 PM,50.0,39.9,68,29.70,9.0,East,8.1,-,N/A,,Overcast,90,2013-03-23 20:53:00
4:53 PM,51.1,39.0,63,29.68,10.0,ESE,8.1,16.1,N/A,,Overcast,110,2013-03-23 21:53:00
5:53 PM,50.0,39.9,68,29.65,10.0,East,9.2,-,N/A,,Overcast,80,2013-03-23 22:53:00
6:53 PM,46.9,39.9,77,29.67,10.0,East,9.2,-,N/A,,Overcast,90,2013-03-23 23:53:00
7:53 PM,46.9,39.0,74,29.81,10.0,NNE,17.3,-,N/A,,Overcast,20,2013-03-24 00:53:00
8:10 PM,46.4,39.2,76,29.83,6.0,North,26.5,34.5,0.00,Rain,Light Rain,360,2013-03-24 01:10:00
8:27 PM,42.8,39.2,87,29.85,4.0,North,21.9,29.9,0.00,Rain,Light Rain,10,2013-03-24 01:27:00
8:53 PM,41.0,37.0,86,29.90,9.0,North,21.9,-,0.00,,Overcast,360,2013-03-24 01:53:00
9:13 PM,41.0,35.6,81,29.94,10.0,North,20.7,35.7,N/A,,Overcast,350,2013-03-24 02:13:00
9:53 PM,39.0,30.0,70,29.98,10.0,North,25.3,34.5,N/A,,Overcast,350,2013-03-24 02:53:00
10:40 PM,37.4,28.4,70,30.01,10.0,NNW,25.3,32.2,N/A,,Mostly Cloudy,340,2013-03-24 03:40:00
10:53 PM,37.0,28.0,70,30.02,10.0,North,26.5,40.3,N/A,,Mostly Cloudy,350,2013-03-24 03:53:00
11:11 PM,35.6,24.8,65,30.02,10.0,North,34.5,43.7,N/A,,Scattered Clouds,350,2013-03-24 04:11:00
11:53 PM,34.0,24.1,67,30.04,10.0,North,28.8,38.0,N/A,,Clear,350,2013-03-24 04:53:00